Main page
METAR-TAF:

METAR-TAF

Airports :

Sanandaj, Iran

Sanandaj Airport

latitude: 35-20N, longitude: 047-00E, elevation: 1373 m

Current weather observation

The report was made 30 minutes ago, at 19:53 UTC
Calm wind
Temperature 1°C
Humidity 69%
Pressure 1026 hPa
Visibility 10 km or more
no clouds below 1500 m and no cumulonimbus

METAR: OICS 181953Z 00000KT CAVOK 01/M04 Q1026

Time: 23:53 (20:23 UTC)


TAF: missing

Weather observations and forecasts of more than 4000 airports (METAR and TAF reports).

The available stations are represented by yellow and red dots on the map.

Hover mouse over dot to see the name of the station.

Then click to see weather observations and forecasts.

To change the map : click on the green buttons with a black cross to zoom in, on the green button with a dash to zoom out, or on the green arrows for adjacent maps.


METAR-TAF: